sat.trackr.live / text

‹ back to catalog

STARLINK-35870

NORAD 66572 · 2025-268R

PAYLOAD ACTIVE UNKNOWN

§ Identity

Operator
Country
US
Launch date
2025-11-21
Launch site
AFETR
Launch vehicle
Mass (kg)
RCS (m²)

Purposes: comms

External: N2YO · Heavens-Above · Gunter

§ Orbital elements

Epoch: 2026-09-20T15:43:25.622688Z

Period
94.27 min
Inclination
43.0014°
Eccentricity
0.0001764
Mean motion
15.27588352 rev/d
Perigee alt
481.8 km
Apogee alt
484.2 km
Semi-major
6,861.2 km
B*
4.8454e-4
RAAN
326.3126°
Arg perigee
288.6879°
Mean anomaly
71.3781°
Rev number
4,777

§ Raw data

STARLINK-358701 66572U 25268R   26263.65515767  .00013098  00000+0  48454-3 0  99982 66572  43.0014 326.3126 0001764 288.6879  71.3781 15.27588352 47777

JSON: /api/v1/satellites/66572 · /tle

For live sub-satellite position, see the globe view (requires WebGL).

§ Visibility from observer

Set your observer location to see the next 7 days of passes ≥ 10°. The values pass through the URL so the page stays shareable.

No JS? Fill the form by hand. The geolocation button needs JavaScript.